Location: Memmingen
(47.9830°N, 10.1733°E)
Time: 04:42:52
(UTC+01:00)

ISS - Pass Details

Date: 10 January 2018
Orbit: 402 x 407 km, 51.6° (Epoch: 18 January)

Event Time Altitude Azimuth Distance (km) Brightness Sun altitude
Exits shadow 04:58:42 12° 73° (ENE) 1,364 -0.4 -30.7°
Drops below altitude 10° 04:58:58 10° 75° (ENE) 1,468 -0.2 -30.7°
Sets 05:01:08 0° 82° (E) 2,329 1.2 -30.3°
